Location: Days
(41.3591°N, 106.7339°W)
Time: 01:38:53
(UTC+00:00)

STRAND 1 - Pass Details

Date: 06 July 2022
Orbit: 767 x 781 km, 98.4° (Epoch: 07 August)

Event Time Altitude Azimuth Distance (km) Brightness Sun altitude
Rises 03:25:29 0° 358° (N) 3,264 ? -7.3°
Reaches altitude 10° 03:28:20 10° 343° (NNW) 2,330 ? -7.7°
Maximum altitude 03:32:00 20° 297° (WNW) 1,718 ? -8.2°
Drops below altitude 10° 03:35:40 10° 251° (WSW) 2,312 ? -8.7°
Sets 03:38:29 0° 235° (SW) 3,232 ? -9.1°
